Location: Doux
(49.5045°N, 4.4321°E)
Time: 11:35:27
(UTC+00:00)

Okean 2 - Pass Details

Date: 23 May 2024
Orbit: 540 x 553 km, 82.5° (Epoch: 14 June)

Event Time Altitude Azimuth Distance (km) Brightness Sun altitude
Exits shadow 00:50:35 34° 155° (SSE) 901 4.0 -18.1°
Maximum altitude 00:52:00 55° 96° (E) 657 3.7 -18.0°
Drops below altitude 10° 00:55:54 10° 18° (NNE) 1,816 7.3 -17.8°
Sets 00:58:06 0° 14° (NNE) 2,714 8.6 -17.7°
